Miscellaneous Local Product
Issued by NWS North Platte, NE

Home | Current Version | Previous Version | Text Only | Print | Product List | Glossary On
Versions: 1 2 3 4 5 6 7 8 9 10 11 12 13 14 15 16 17 18 19 20 21 22 23 24 25 26 27 28 29 30 31 32 33 34 35 36 37 38 39 40 41 42 43 44 45 46 47 48 49 50
000
AXUS43 KLBF 161610
MISLBF


WESTERN AND NORTH CENTRAL NEBRASKA HOURLY WEATHER ROUNDUP
NATIONAL WEATHER SERVICE NORTH PLATTE NE
1000 AM CST TUE JAN 16 2018

NOTE: "FAIR" INDICATES FEW OR NO CLOUDS BELOW 12,000 FEET WITH NO
SIGNIFICANT WEATHER AND/OR OBSTRUCTIONS TO VISIBILITY.

NOTE: STATIONS NOT REPORTING VARIABLES SUCH AS SKY/WEATHER OR
PRESSURE ARE PROVIDED BY RAWS AND APRS NETWORKS AND ARE NOT UNDER
NATIONAL WEATHER SERVICE QUALITY CONTROL.

...OBSERVATIONS IN AND NEAR THE EASTERN PANHANDLE OF NEBRASKA...

CITY           SKY/WX    TMP DP  RH WIND       PRES   REMARKS
GORDON         FAIR      -8 -13  78 CALM      30.54S
$$

...OBSERVATIONS IN NORTHERN NEBRASKA AND FAR SOUTHERN SOUTH DAKOTA...

CITY           SKY/WX    TMP DP  RH WIND       PRES   REMARKS
AINSWORTH      FAIR      -6 -12  73 W6        30.66S WCI -19
O`NEILL        FAIR      -6 -12  73 W10       30.72R WCI -23
THEDFORD       FAIR      -5 -13  68 W7        30.64S WCI -19
ALBION         FAIR       1  -4  78 NW13      30.71S WCI -17
VALENTINE NWR    N/A     -4 -15  60 W6          N/A  WCI -16
HALSEY           N/A     -3 -15  55 NW5         N/A  WCI -13
BUTTE            N/A     -7 -12  78 W9          N/A  WCI -24
CHAMBERS         N/A     -2 -13  60 W5          N/A  WCI -12
EWING            N/A     -4  -9  78 NW12G18     N/A  WCI -22
$$

...OBSERVATIONS IN SOUTHWEST NEBRASKA AND FAR NORTHEAST COLORADO...

CITY           SKY/WX    TMP DP  RH WIND       PRES   REMARKS
WRAY           FAIR      -2  -8  78 CALM      30.61S
OGALLALA       FAIR      -3  -8  76 CALM      30.63S
LEXINGTON      FAIR      -1 -10  66 NW10      30.70S WCI -18
STAPLETON        N/A     -5 -12  71 CALM        N/A
GOTHENBURG       N/A     -4 -13  66 NW6         N/A  WCI -16
CALLAWAY         N/A     -4 -11  73 NW10        N/A  WCI -21
$$

...OBSERVATIONS IN CENTRAL LINCOLN COUNTY AREA...

CITY           SKY/WX    TMP DP  RH WIND       PRES   REMARKS
N.P. DOWNTOWN    N/A     -3 -11  69 CALM        N/A
N.P. SOUTHEAST   N/A     -3 -12  66 CALM        N/A
N.P. HILLCREST   N/A     -3 -10  70 NW5         N/A  WCI -13
$$

...SOME OBSERVATIONS FROM AROUND THE REGION...

CITY           SKY/WX    TMP DP  RH WIND       PRES   REMARKS
BERTHOUD PASS  FAIR       7  -4  61 NW6G16    30.26R WCI  -3
$$




USA.gov is the U.S. government's official web portal to all federal, state and local government web resources and services.